Oscoda, MI

10:23 PM EST on December 08, 2019 (GMT -0500)
Oscoda-Wurtsmith

Weather History for KOSC - October, 2019

Change the Weather History Date:

Thursday, October 31, 2019

  Actual Average Record
Temperature  
Mean Temperature 38 °F -  
Max Temperature 43 °F 49 °F 69 °F (2008)
Min Temperature 33 °F 34 °F 21 °F (2000)
Degree Days  
Heating Degree Days 26    
Moisture  
Dew Point 38 °F    
Average Humidity 96    
Maximum Humidity 100    
Minimum Humidity 89    
Precipitation  
Precipitation 0.96 in - - ()
Sea Level Pressure  
Sea Level Pressure 29.72 in    
Wind  
Wind Speed 15 mph ()    
Max Wind Speed 23 mph    
Max Gust Speed 34 mph    
Visibility 3.6 miles    
Events Rain , Snow    
Averages and records for this station are not official NWS values.
T = Trace of Precipitation, MM = Missing Value Source: Averaged Metar Reports

Daily Weather History Graph

Daily Weather History Graph

Search for Another Location

Airport or City:

Astronomy

Oct. 31, 2019 Rise Set
Actual Time 8:09 AM EDT 6:24 PM EDT
Civil Twilight 7:38 AM EDT 6:54 PM EDT
Nautical Twilight 7:04 AM EDT 7:28 PM EDT
Astronomical Twilight 6:30 AM EDT 8:02 PM EDT
Moon 12:03 PM EDT (10/31) 9:12 PM EDT (10/31)
Length of Visible Light 11h 15m
Length of Day
10h 15m
Waxing Crescent, 15% of the Moon is Illuminated
Oct 31
Waxing Crescent
Nov 4
First Quarter
Nov 12
Full
Nov 19
Last Quarter
Nov 26
New

Hourly Weather History & Observations

Time (EDT) Temp. Windchill Dew Point Humidity Pressure Visibility Wind Dir Wind Speed Gust Speed Precip Events Conditions
12:18 AM 43.7 °F 37.3 °F 43.0 °F 97% 29.97 in 7.0 mi NE 12.7 mph 19.6 mph N/A   Drizzle
12:36 AM 43.5 °F 36.7 °F 43.0 °F 98% 29.96 in 4.0 mi NE 13.8 mph 19.6 mph N/A Rain Rain
12:55 AM 43.3 °F 36.8 °F 43.0 °F 99% 29.96 in 3.0 mi NNE 12.7 mph 19.6 mph N/A Rain Heavy Rain
1:15 AM 43.5 °F 36.1 °F 43.2 °F 99% 29.95 in 3.0 mi NNE 16.1 mph - 0.01 in Rain Heavy Rain
1:39 AM 43.2 °F 35.9 °F 42.8 °F 99% 29.94 in 5.0 mi NE 15.0 mph 23.0 mph 0.01 in Rain Rain
1:57 AM 43.5 °F 36.7 °F 43.3 °F 99% 29.93 in 5.0 mi NE 13.8 mph 19.6 mph 0.02 in   Drizzle
2:15 AM 43.2 °F 35.9 °F 43.0 °F 99% 29.93 in 3.0 mi NE 15.0 mph 25.3 mph N/A Rain Light Rain
2:35 AM 43.0 °F 34.8 °F 42.8 °F 99% 29.92 in 4.0 mi NNE 18.4 mph 23.0 mph 0.01 in   Light Drizzle
2:55 AM 42.8 °F 34.8 °F 42.1 °F 97% 29.92 in 4.0 mi NNE 17.3 mph 24.2 mph 0.01 in   Unknown
2:59 AM 42.8 °F 34.5 °F 42.1 °F 97% 29.92 in 5.0 mi NNE 18.4 mph 25.3 mph 0.01 in   Overcast
3:18 AM 42.3 °F 33.8 °F 41.5 °F 97% 29.90 in 7.0 mi NNE 18.4 mph 23.0 mph N/A   Overcast
3:36 AM 42.1 °F 34.5 °F 41.0 °F 96% 29.89 in 7.0 mi NE 15.0 mph 25.3 mph N/A   Overcast
3:55 AM 42.1 °F 33.6 °F 41.0 °F 96% 29.88 in 5.0 mi NNE 18.4 mph 21.9 mph N/A   Overcast
4:15 AM 41.9 °F 34.6 °F 40.3 °F 94% 29.88 in 5.0 mi NNE 13.8 mph 24.2 mph N/A   Overcast
4:16 AM 41.9 °F 34.3 °F 40.3 °F 94% 29.88 in 5.0 mi NNE 15.0 mph 24.2 mph N/A   Overcast
4:38 AM 41.9 °F 33.4 °F 40.1 °F 93% 29.87 in 7.0 mi NE 18.4 mph 23.0 mph N/A   Overcast
4:57 AM 41.5 °F 32.9 °F 40.1 °F 95% 29.86 in 5.0 mi NNE 18.4 mph 24.2 mph N/A   Overcast
5:15 AM 41.4 °F 33.3 °F 39.7 °F 94% 29.86 in 5.0 mi NNE 16.1 mph 23.0 mph N/A   Overcast
5:35 AM 41.4 °F 33.0 °F 40.1 °F 95% 29.86 in 5.0 mi NNE 17.3 mph 24.2 mph N/A   Overcast
5:36 AM 41.4 °F 32.4 °F 40.1 °F 95% 29.86 in 5.0 mi NNE 19.6 mph 25.3 mph N/A   Overcast
5:55 AM 41.2 °F 33.0 °F 39.7 °F 95% 29.86 in 4.0 mi NNE 16.1 mph 24.2 mph N/A   Overcast
6:00 AM 41.2 °F 33.0 °F 39.4 °F 93% 29.85 in 5.0 mi NNE 16.1 mph 24.2 mph N/A   Overcast
6:18 AM 41.2 °F 33.4 °F 39.6 °F 94% 29.85 in 5.0 mi NNE 15.0 mph 25.3 mph N/A   Overcast
6:36 AM 41.0 °F 32.5 °F 39.2 °F 93% 29.84 in 4.0 mi NNE 17.3 mph 26.5 mph N/A   Overcast
6:55 AM 41.2 °F 32.4 °F 40.1 °F 96% 29.82 in 7.0 mi NNE 18.4 mph 23.0 mph 0.02 in   Unknown
7:15 AM 41.2 °F 32.7 °F 39.9 °F 95% 29.81 in 7.0 mi NNE 17.3 mph - 0.02 in   Unknown
7:16 AM 41.2 °F 33.0 °F 39.7 °F 95% 29.81 in 7.0 mi NNE 16.1 mph 19.6 mph 0.02 in   Unknown
7:39 AM 41.5 °F 33.5 °F 39.2 °F 91% 29.81 in 10.0 mi NNE 16.1 mph 26.5 mph 0.02 in   Overcast
7:57 AM 41.7 °F 33.7 °F 39.2 °F 91% 29.80 in 7.0 mi NNE 16.1 mph 26.5 mph 0.05 in   Unknown
8:15 AM 41.5 °F 33.5 °F 38.7 °F 89% 29.81 in 5.0 mi NNE 16.1 mph 23.0 mph 0.03 in   Unknown
8:35 AM 41.5 °F 33.8 °F 39.2 °F 91% 29.80 in 5.0 mi NNE 15.0 mph 24.2 mph 0.06 in   Unknown
8:55 AM 40.8 °F 32.9 °F 39.0 °F 93% 29.80 in 4.0 mi North 15.0 mph 24.2 mph 0.11 in   Unknown
9:00 AM 40.6 °F 33.8 °F 38.7 °F 93% 29.80 in 3.0 mi North 11.5 mph 24.2 mph N/A   Unknown
9:18 AM 40.3 °F 32.2 °F 38.5 °F 93% 29.78 in 2.5 mi NNE 15.0 mph 24.2 mph 0.03 in   Unknown
9:36 AM 39.9 °F 30.5 °F 38.3 °F 94% 29.78 in 3.0 mi North 19.6 mph 25.3 mph 0.06 in   Unknown
9:55 AM 39.7 °F 30.3 °F 38.5 °F 95% 29.75 in 2.5 mi NNE 19.6 mph 26.5 mph 0.11 in   Unknown
10:15 AM 40.1 °F 30.5 °F 38.7 °F 95% 29.73 in 4.0 mi NNE 20.7 mph 29.9 mph 0.02 in   Unknown
10:39 AM 39.7 °F 31.2 °F 38.3 °F 95% 29.73 in 5.0 mi NNE 16.1 mph 26.5 mph 0.04 in   Overcast
10:57 AM 40.1 °F 31.6 °F 38.3 °F 93% 29.74 in 5.0 mi NNE 16.1 mph 25.3 mph 0.05 in   Unknown
11:15 AM 40.1 °F 32.0 °F 39.0 °F 96% 29.73 in 3.0 mi NNE 15.0 mph 21.9 mph 0.02 in   Overcast
11:35 AM 40.3 °F 30.7 °F 39.4 °F 97% 29.71 in 3.0 mi NNE 20.7 mph 25.3 mph 0.03 in   Overcast
11:55 AM 40.3 °F 30.4 °F 39.4 °F 97% 29.71 in 3.0 mi NNE 21.9 mph 27.6 mph 0.03 in   Overcast
12:18 PM 40.5 °F 31.5 °F 39.4 °F 96% 29.68 in 5.0 mi NNE 18.4 mph 23.0 mph 0.02 in   Overcast
12:36 PM 40.6 °F 31.7 °F 39.2 °F 95% 29.67 in 5.0 mi NNE 18.4 mph 26.5 mph 0.03 in   Unknown
12:55 PM 40.6 °F 31.4 °F 39.2 °F 95% 29.65 in 5.0 mi NNE 19.6 mph 25.3 mph 0.04 in   Overcast
1:15 PM 40.6 °F 31.4 °F 39.2 °F 95% 29.63 in 4.0 mi NNE 19.6 mph 28.8 mph 0.01 in   Unknown
1:16 PM 40.6 °F 30.7 °F 39.2 °F 95% 29.63 in 4.0 mi NNE 23.0 mph 28.8 mph 0.01 in   Unknown
1:39 PM 40.5 °F 32.1 °F 39.2 °F 95% 29.63 in 2.5 mi North 16.1 mph - 0.04 in   Unknown
1:57 PM 40.3 °F 30.7 °F 38.8 °F 95% 29.61 in 2.0 mi North 20.7 mph 27.6 mph 0.08 in   Unknown
2:16 PM 40.3 °F 31.0 °F 39.0 °F 95% 29.59 in 4.0 mi North 19.6 mph 25.3 mph 0.01 in   Unknown
2:35 PM 40.1 °F 31.3 °F 38.7 °F 95% 29.59 in 1.8 mi North 17.3 mph 23.0 mph 0.05 in   Unknown
2:55 PM 39.9 °F 31.1 °F 38.3 °F 94% 29.57 in 1.8 mi NNE 17.3 mph 26.5 mph 0.09 in   Unknown
3:00 PM 39.6 °F 29.7 °F 38.1 °F 95% 29.55 in 1.8 mi NNE 20.7 mph 28.8 mph 0.01 in   Unknown
3:18 PM 39.7 °F 30.6 °F 38.5 °F 95% 29.55 in 2.5 mi NNE 18.4 mph 33.4 mph 0.03 in   Unknown
3:36 PM 39.4 °F 29.5 °F 37.8 °F 94% 29.55 in 3.0 mi NNE 20.7 mph 34.5 mph 0.06 in   Unknown
3:55 PM 39.4 °F 29.8 °F 38.3 °F 96% 29.54 in 2.0 mi NNE 19.6 mph 29.9 mph 0.10 in   Unknown
4:15 PM 39.2 °F 29.6 °F 38.1 °F 96% 29.53 in 1.2 mi NNE 19.6 mph 28.8 mph 0.03 in   Unknown
4:16 PM 39.2 °F 29.0 °F 37.9 °F 95% 29.53 in 1.2 mi NNE 21.9 mph 28.8 mph 0.03 in   Unknown
4:39 PM 38.8 °F 30.0 °F 37.6 °F 95% 29.54 in 2.0 mi North 16.1 mph 28.8 mph 0.05 in   Unknown
4:57 PM 38.7 °F 29.5 °F 37.0 °F 94% 29.54 in 2.0 mi North 17.3 mph 25.3 mph 0.07 in   Unknown
5:15 PM 38.7 °F 28.6 °F 37.4 °F 95% 29.53 in 3.0 mi North 20.7 mph 26.5 mph N/A   Overcast
5:35 PM 37.9 °F 27.9 °F 36.3 °F 94% 29.53 in 1.8 mi North 19.6 mph 24.2 mph 0.03 in Snow Light Snow
5:55 PM 37.9 °F 28.9 °F 36.5 °F 95% 29.54 in 1.8 mi North 16.1 mph 28.8 mph 0.06 in Snow Light Snow
6:00 PM 37.8 °F 29.0 °F 36.5 °F 95% 29.54 in 2.0 mi North 15.0 mph 28.8 mph N/A Snow Light Snow
6:18 PM 37.4 °F 27.5 °F 36.0 °F 95% 29.53 in 3.0 mi North 18.4 mph 24.2 mph 0.03 in Snow Light Snow
6:36 PM 36.1 °F 28.2 °F 34.9 °F 95% 29.54 in 4.0 mi NNW 11.5 mph - 0.06 in Snow Light Snow
6:55 PM 34.9 °F 25.7 °F 34.2 °F 97% 29.55 in 3.0 mi NNW 13.8 mph 18.4 mph 0.07 in Snow Light Snow
7:15 PM 34.2 °F 26.2 °F 34.2 °F 100% 29.57 in 2.0 mi NNW 10.4 mph 16.1 mph 0.01 in Snow Light Snow
7:39 PM 34.2 °F 26.8 °F 34.2 °F 100% 29.59 in 1.5 mi NW 9.2 mph - 0.01 in Snow Light Snow
7:57 PM 34.0 °F 25.0 °F 34.0 °F 100% 29.59 in 1.5 mi NNW 12.7 mph 18.4 mph 0.01 in Snow Light Snow
8:15 PM 34.0 °F 25.0 °F 34.0 °F 100% 29.60 in 1.2 mi NW 12.7 mph 18.4 mph 0.01 in Snow Light Snow
8:35 PM 34.2 °F 25.2 °F 34.2 °F 100% 29.61 in 2.0 mi NNW 12.7 mph 20.7 mph 0.01 in Snow Light Snow
8:55 PM 34.2 °F 24.8 °F 34.2 °F 100% 29.62 in 2.0 mi NW 13.8 mph - 0.02 in Snow Light Snow
9:00 PM 34.2 °F 24.0 °F 34.2 °F 100% 29.63 in 2.0 mi NW 16.1 mph 21.9 mph N/A Snow Light Snow
9:18 PM 34.3 °F 24.2 °F 34.2 °F 99% 29.63 in 1.8 mi NW 16.1 mph 21.9 mph N/A Snow Light Snow
9:36 PM 34.2 °F 24.0 °F 34.2 °F 100% 29.64 in 1.2 mi NW 16.1 mph 19.6 mph 0.01 in Snow Light Snow
9:55 PM 34.2 °F 24.8 °F 34.2 °F 100% 29.65 in 2.0 mi NW 13.8 mph 20.7 mph 0.01 in Snow Light Snow
10:15 PM 34.2 °F 24.4 °F 34.0 °F 99% 29.67 in 1.5 mi NW 15.0 mph 21.9 mph N/A Snow Light Snow
10:16 PM 34.2 °F 24.4 °F 34.0 °F 99% 29.67 in 2.0 mi NW 15.0 mph 21.9 mph N/A Snow Light Snow
10:39 PM 34.2 °F 24.8 °F 33.1 °F 96% 29.68 in 1.5 mi NW 13.8 mph 24.2 mph N/A Snow Light Snow
10:57 PM 34.2 °F 22.3 °F 33.6 °F 98% 29.69 in 2.5 mi NW 21.9 mph 29.9 mph 0.01 in Snow Light Snow
11:15 PM 34.2 °F 22.6 °F 32.5 °F 94% 29.69 in 4.0 mi NW 20.7 mph 27.6 mph N/A Snow Light Snow
11:35 PM 34.0 °F 22.7 °F 32.5 °F 94% 29.70 in 2.0 mi NW 19.6 mph 27.6 mph N/A Snow Light Snow
11:55 PM 33.8 °F 24.3 °F 32.9 °F 96% 29.73 in 1.0 mi WNW 13.8 mph 25.3 mph N/A Snow Snow